Location: Bennemühlen
(52.5740°N, 9.7135°E)
Time: 11:10:56
(UTC+00:00)

SR - Pass Details

Date: 21 February 2026
Orbit: 573 x 848 km, 66.7° (Epoch: 7 March)

Event Time Altitude Azimuth Distance (km) Brightness Sun altitude
Exits shadow 05:15:42 16° 279° (W) 1,607 ? -11.3°
Maximum altitude 05:18:21 28° 329° (NNW) 1,194 ? -10.8°
Drops below altitude 10° 05:22:21 10° 28° (NNE) 2,073 ? -10.2°
Sets 05:25:03 0° 40° (NE) 3,039 ? -9.8°
